User: anonymous   Login
Location: Unspecified
(0.0000°N, 0.0000°E)
Time: 08:52:28
(UTC+00:00)
Language:

TBA - TO BE ASSIGNED - Orbit

View from above orbital plane
View from above orbital plane
View from above satellite
View from above satellite

Ground track
Ground track

The orbit is defined by the following mean orbital elements,

1 68467U          26145.61860828 +.00000000 +00000-0 +78128-3 0 00000
2 68467  97.4396 104.2788 0007958 137.6444 222.5406 15.18203506    01
Epoch (UTC): 25 May 2026 14:50:47
Eccentricity: 0.0007958
inclination: 97.4396°
perigee height: 506 km
apogee height: 517 km
right ascension of ascending node: 104.2788°
argument of perigee: 137.6444°
revolutions per day: 15.18203506
mean anomaly at epoch: 222.5406°

The dashed part of the orbit path shows where the satellite is in the earth's shadow,  

DLR